User: anonymous   Login
Location: Newark
(42.7133°N, 87.7910°W)
Time: 19:36:15
(UTC+00:00)
Language:

Transit 2A Rocket - Orbit

View from above orbital plane
View from above orbital plane
View from above satellite
View from above satellite

Ground track
Ground track

The orbit data is extracted from the following two-line orbital elements,

1    47U 60007C   19288.56240501 -.00000050  00000-0  13882-4 0  9997
2    47  66.6647  92.4538 0221770 124.3108 237.9207 14.42053273 99679
Epoch (UTC): 15 October 2019 13:29:51
Eccentricity: 0.0221770
inclination: 66.6647°
perigee height: 593 km
apogee height: 910 km
right ascension of ascending node: 92.4538°
argument of perigee: 124.3108°
revolutions per day: 14.42053273
mean anomaly at epoch: 237.9207°
orbit number at epoch: 9967

The dashed part of the orbit path shows where the satellite is in the earth's shadow,  

DLR